Weather History for KPVJ - October, 2013

Change the Weather History Date:

Thursday, October 3, 2013

  Actual Average (KADH) Record (KADH)
Temperature  
Mean Temperature 79 °F -  
Max Temperature 89 °F 82 °F 96 °F (1963)
Min Temperature 69 °F 55 °F 38 °F (1987)
Cooling Degree Days 14    
Growing Degree Days 29 (Base 50)    
Moisture  
Dew Point 67 °F    
Average Humidity 69    
Maximum Humidity 94    
Minimum Humidity 43    
Precipitation  
Precipitation 0.00 in - - ()
Sea Level Pressure  
Sea Level Pressure 29.85 in    
Wind  
Wind Speed 13 mph (South)    
Max Wind Speed 24 mph    
Max Gust Speed 31 mph    
Visibility 10 miles    
Events      
Averages and records for this station are not official NWS values.
T = Trace of Precipitation, MM = Missing Value Source: NWS Daily Summary

Daily Weather History Graph

Daily Weather History Graph

Search for Another Location

Airport or City:

Trip Planner

Search our weather history database for the weather conditions in past years. The results will help you decide how hot, cold, wet, or windy it might be!

Date:

Astronomy

Oct. 03, 2013 Rise Set
Actual Time 7:25 AM CDT 7:09 PM CDT
Civil Twilight 7:00 AM CDT 7:34 PM CDT
Nautical Twilight 6:30 AM CDT 8:04 PM CDT
Astronomical Twilight 6:01 AM CDT 8:33 PM CDT
Moon 6:02 AM CDT (10/3) 6:18 PM CDT (10/3)
Length of Visible Light 12h 34m
Length of Day
11h 44m
Waning Crescent, 2% of the Moon is Illuminated
Oct 3
Waning Crescent
Oct 4
New
Oct 11
First Quarter
Oct 18
Full
Oct 26
Last Quarter

Hourly Weather History & Observations

Time (CDT) Temp. Heat Index Dew Point Humidity Pressure Visibility Wind Dir Wind Speed Gust Speed Precip Events Conditions
12:15 AM 73.4 °F - 66.2 °F 78% 29.91 in 10.0 mi SSE 8.1 mph - N/A   Unknown
12:35 AM 73.4 °F - 66.2 °F 78% 29.90 in 10.0 mi SSE 11.5 mph 17.3 mph N/A   Unknown
12:55 AM 73.4 °F - 68.0 °F 83% 29.89 in 10.0 mi SSE 10.4 mph - N/A   Unknown
1:15 AM 71.6 °F - 68.0 °F 88% 29.89 in 10.0 mi SSE 10.4 mph - N/A   Unknown
1:35 AM 71.6 °F - 68.0 °F 88% 29.89 in 10.0 mi SSE 10.4 mph - N/A   Unknown
1:55 AM 71.6 °F - 68.0 °F 88% 29.89 in 10.0 mi SSE 8.1 mph - N/A   Unknown
2:15 AM 71.6 °F - 68.0 °F 88% 29.89 in 10.0 mi SSE 10.4 mph - N/A   Unknown
2:35 AM 71.6 °F - 68.0 °F 88% 29.88 in 10.0 mi SSE 9.2 mph - N/A   Unknown
2:55 AM 71.6 °F - 68.0 °F 88% 29.88 in 10.0 mi SSE 8.1 mph - N/A   Unknown
3:15 AM 71.6 °F - 68.0 °F 88% 29.88 in 10.0 mi SSE 9.2 mph - N/A   Unknown
3:35 AM 71.6 °F - 66.2 °F 83% 29.87 in 10.0 mi SSE 9.2 mph - N/A   Unknown
3:55 AM 71.6 °F - 66.2 °F 83% 29.87 in 10.0 mi South 9.2 mph - N/A   Unknown
4:15 AM 71.6 °F - 66.2 °F 83% 29.87 in 10.0 mi SSE 10.4 mph - N/A   Unknown
4:35 AM 71.6 °F - 66.2 °F 83% 29.87 in 10.0 mi SSE 12.7 mph - N/A   Unknown
4:55 AM 69.8 °F - 66.2 °F 88% 29.87 in 10.0 mi South 9.2 mph - N/A   Unknown
5:15 AM 69.8 °F - 68.0 °F 94% 29.87 in 10.0 mi South 10.4 mph 17.3 mph N/A   Unknown
5:35 AM 69.8 °F - 68.0 °F 94% 29.87 in 10.0 mi South 12.7 mph 17.3 mph N/A   Unknown
5:55 AM 71.6 °F - 68.0 °F 88% 29.87 in 10.0 mi South 12.7 mph - N/A   Unknown
6:15 AM 71.6 °F - 68.0 °F 88% 29.88 in 10.0 mi South 13.8 mph - N/A   Unknown
6:35 AM 71.6 °F - 68.0 °F 88% 29.88 in 10.0 mi South 12.7 mph - N/A   Unknown
6:55 AM 71.6 °F - 69.8 °F 94% 29.89 in 10.0 mi South 12.7 mph - N/A   Unknown
7:15 AM 71.6 °F - 69.8 °F 94% 29.89 in 10.0 mi South 11.5 mph 18.4 mph N/A   Unknown
7:35 AM 71.6 °F - 69.8 °F 94% 29.89 in 10.0 mi South 10.4 mph - N/A   Unknown
7:55 AM 73.4 °F - 69.8 °F 88% 29.89 in 10.0 mi South 10.4 mph - N/A   Unknown
8:15 AM 73.4 °F - 69.8 °F 88% 29.90 in 10.0 mi South 13.8 mph 17.3 mph N/A   Unknown
8:35 AM 73.4 °F - 69.8 °F 88% 29.90 in 10.0 mi South 11.5 mph 19.6 mph N/A   Unknown
8:55 AM 75.2 °F - 69.8 °F 83% 29.90 in 10.0 mi South 15.0 mph 19.6 mph N/A   Unknown
9:15 AM 77.0 °F - 69.8 °F 78% 29.90 in 10.0 mi South 13.8 mph - N/A   Unknown
9:35 AM 77.0 °F - 69.8 °F 78% 29.90 in 10.0 mi South 17.3 mph 23.0 mph N/A   Unknown
9:55 AM 78.8 °F - 69.8 °F 74% 29.90 in 10.0 mi South 18.4 mph 23.0 mph N/A   Unknown
10:15 AM 78.8 °F - 69.8 °F 74% 29.90 in 10.0 mi South 15.0 mph - N/A   Unknown
10:35 AM 80.6 °F 83.9 °F 69.8 °F 70% 29.90 in 10.0 mi South 18.4 mph 26.5 mph N/A   Unknown
10:55 AM 80.6 °F 83.9 °F 69.8 °F 70% 29.90 in 10.0 mi SSW 17.3 mph 21.9 mph N/A   Unknown
11:15 AM 82.4 °F 86.3 °F 69.8 °F 66% 29.89 in 10.0 mi South 17.3 mph 20.7 mph N/A   Unknown
11:35 AM 82.4 °F 86.3 °F 69.8 °F 66% 29.89 in 10.0 mi SSW 15.0 mph - N/A   Unknown
11:55 AM 84.2 °F 88.4 °F 69.8 °F 62% 29.88 in 10.0 mi SSW 16.1 mph 21.9 mph N/A   Unknown
12:15 PM 84.2 °F 87.3 °F 68.0 °F 58% 29.88 in 10.0 mi SSW 15.0 mph 23.0 mph N/A   Unknown
12:35 PM 86.0 °F 89.4 °F 68.0 °F 55% 29.87 in 10.0 mi SSW 17.3 mph 23.0 mph N/A   Unknown
12:55 PM 86.0 °F 89.4 °F 68.0 °F 55% 29.87 in 10.0 mi South 17.3 mph 21.9 mph N/A   Unknown
1:15 PM 87.8 °F 91.4 °F 68.0 °F 52% 29.86 in 10.0 mi SSW 17.3 mph 23.0 mph N/A   Unknown
1:35 PM 87.8 °F 91.4 °F 68.0 °F 52% 29.84 in 10.0 mi South 15.0 mph 23.0 mph N/A   Unknown
1:55 PM 87.8 °F 90.4 °F 66.2 °F 49% 29.84 in 10.0 mi South 17.3 mph 21.9 mph N/A   Unknown
2:15 PM 87.8 °F 91.4 °F 68.0 °F 52% 29.83 in 10.0 mi South 18.4 mph 21.9 mph N/A   Unknown
2:35 PM 89.6 °F 93.4 °F 68.0 °F 49% 29.82 in 10.0 mi South 17.3 mph 25.3 mph N/A   Unknown
2:55 PM 87.8 °F 90.4 °F 66.2 °F 49% 29.81 in 10.0 mi South 23.0 mph 26.5 mph N/A   Unknown
3:15 PM 89.6 °F 92.2 °F 66.2 °F 46% 29.81 in 10.0 mi SSE 19.6 mph 24.2 mph N/A   Unknown
3:35 PM 89.6 °F 91.1 °F 64.4 °F 43% 29.80 in 10.0 mi SSE 18.4 mph 24.2 mph N/A   Unknown
3:55 PM 87.8 °F 89.4 °F 64.4 °F 46% 29.80 in 10.0 mi SSE 18.4 mph 26.5 mph N/A   Unknown
4:15 PM 87.8 °F 89.4 °F 64.4 °F 46% 29.79 in 10.0 mi South 24.2 mph 31.1 mph N/A   Unknown
4:35 PM 87.8 °F 89.4 °F 64.4 °F 46% 29.78 in 10.0 mi SSE 20.7 mph 26.5 mph N/A   Unknown
4:55 PM 87.8 °F 89.4 °F 64.4 °F 46% 29.78 in 10.0 mi SSE 19.6 mph 25.3 mph N/A   Unknown
5:15 PM 87.8 °F 89.4 °F 64.4 °F 46% 29.79 in 10.0 mi SSE 16.1 mph 26.5 mph N/A   Unknown
5:35 PM 86.0 °F 87.3 °F 64.4 °F 48% 29.78 in 10.0 mi South 17.3 mph 26.5 mph N/A   Unknown
5:55 PM 86.0 °F 87.3 °F 64.4 °F 48% 29.78 in 10.0 mi South 20.7 mph 26.5 mph N/A   Unknown
6:15 PM 86.0 °F 87.3 °F 64.4 °F 48% 29.79 in 10.0 mi SSE 13.8 mph 23.0 mph N/A   Unknown
6:35 PM 84.2 °F 85.6 °F 64.4 °F 51% 29.79 in 10.0 mi South 15.0 mph 20.7 mph N/A   Unknown
6:55 PM 82.4 °F 83.4 °F 62.6 °F 51% 29.79 in 10.0 mi South 16.1 mph 26.5 mph N/A   Unknown
7:15 PM 82.4 °F 83.4 °F 62.6 °F 51% 29.79 in 10.0 mi South 13.8 mph 19.6 mph N/A   Unknown
7:35 PM 80.6 °F 81.8 °F 62.6 °F 54% 29.79 in 10.0 mi South 12.7 mph - N/A   Unknown
7:55 PM 80.6 °F 81.8 °F 62.6 °F 54% 29.79 in 10.0 mi SSE 12.7 mph 17.3 mph N/A   Unknown
8:15 PM 80.6 °F 81.8 °F 62.6 °F 54% 29.79 in 10.0 mi SSE 9.2 mph - N/A   Unknown
8:35 PM 78.8 °F - 64.4 °F 61% 29.80 in 10.0 mi SSE 9.2 mph - N/A   Unknown
8:55 PM 78.8 °F - 64.4 °F 61% 29.80 in 10.0 mi SSE 12.7 mph 17.3 mph N/A   Unknown
9:15 PM 78.8 °F - 64.4 °F 61% 29.80 in 10.0 mi SSE 12.7 mph 21.9 mph N/A   Unknown
9:35 PM 78.8 °F - 64.4 °F 61% 29.81 in 10.0 mi SSE 13.8 mph 20.7 mph N/A   Unknown
9:55 PM 78.8 °F - 64.4 °F 61% 29.82 in 10.0 mi SSE 17.3 mph 24.2 mph N/A   Unknown
10:15 PM 78.8 °F - 64.4 °F 61% 29.82 in 10.0 mi SSE 13.8 mph - N/A   Unknown
10:35 PM 78.8 °F - 66.2 °F 65% 29.82 in 10.0 mi SSE 17.3 mph - N/A   Unknown
11:35 PM 77.0 °F - 68.0 °F 74% 29.83 in 10.0 mi SSE 15.0 mph 23.0 mph N/A   Unknown
11:55 PM 77.0 °F - 68.0 °F 74% 29.83 in 10.0 mi SSE 18.4 mph 23.0 mph N/A   Unknown